Hourly Weather Ravda

Today, 6 July, Monday

Time Temperature Precipitation Wind Pressure Humidity
00:00 +24°C° 0 mm 2 mps 756 mmHg 85%
01:00 +24°C° 0 mm 3 mps 756 mmHg 85%
02:00 +23°C° 0 mm 4 mps 756 mmHg 80%
03:00 +22°C° 0 mm 4 mps 756 mmHg 82%
04:00 +22°C° 0 mm 4 mps 755 mmHg 84%
05:00 +22°C° 0 mm 4 mps 755 mmHg 86%
06:00 +23°C° 0 mm 4 mps 755 mmHg 82%
07:00 +26°C° 0 mm 5 mps 755 mmHg 77%
08:00 +28°C° 0 mm 5 mps 755 mmHg 70%
09:00 +29°C° 0 mm 5 mps 755 mmHg 66%
10:00 +30°C° 0 mm 5 mps 755 mmHg 61%
11:00 +33°C° 0 mm 5 mps 754 mmHg 56%
12:00 +33°C° 0 mm 5 mps 754 mmHg 56%
13:00 +33°C° 0 mm 6 mps 754 mmHg 56%
14:00 +34°C° 0 mm 5 mps 754 mmHg 51%
15:00 +34°C° 0 mm 4 mps 753 mmHg 53%
16:00 +33°C° 0 mm 4 mps 753 mmHg 55%
17:00 +33°C° 0 mm 4 mps 753 mmHg 57%
18:00 +30°C° 0 mm 3 mps 753 mmHg 66%
19:00 +28°C° 0 mm 2 mps 753 mmHg 75%
20:00 +26°C° 0 mm 1 mps 753 mmHg 84%
21:00 +25°C° 0 mm 1 mps 752 mmHg 85%
22:00 +25°C° 0 mm 1 mps 752 mmHg 86%
23:00 +25°C° 0 mm 1 mps 752 mmHg 86%

Tomorrow, 7 July, Tuesday

Time Temperature Precipitation Wind Pressure Humidity
00:00 +24°C° 0 mm 2 mps 752 mmHg 86%
01:00 +24°C° 0 mm 2 mps 752 mmHg 86%
02:00 +24°C° 0 mm 2 mps 752 mmHg 86%
03:00 +23°C° 0 mm 2 mps 752 mmHg 86%
04:00 +23°C° 0 mm 2 mps 752 mmHg 87%
05:00 +23°C° 0 mm 2 mps 752 mmHg 87%
06:00 +25°C° 0 mm 2 mps 752 mmHg 80%
07:00 +27°C° 0 mm 2 mps 752 mmHg 73%
08:00 +29°C° 0 mm 2 mps 753 mmHg 65%
09:00 +30°C° 0 mm 3 mps 753 mmHg 60%
10:00 +33°C° 0 mm 3 mps 753 mmHg 55%
11:00 +34°C° 0 mm 3 mps 753 mmHg 49%
12:00 +35°C° 0 mm 4 mps 753 mmHg 48%
13:00 +35°C° 0 mm 4 mps 753 mmHg 47%
14:00 +35°C° 0 mm 4 mps 753 mmHg 46%
15:00 +34°C° 0 mm 5 mps 753 mmHg 50%
16:00 +33°C° 0 mm 5 mps 753 mmHg 54%
17:00 +32°C° 0 mm 6 mps 753 mmHg 58%
18:00 +29°C° 0.1 mm 7 mps 753 mmHg 58%
19:00 +27°C° 0.1 mm 9 mps 754 mmHg 58%
20:00 +24°C° 0.1 mm 10 mps 755 mmHg 59%
21:00 +23°C° 0.2 mm 9 mps 756 mmHg 64%
22:00 +22°C° 0.2 mm 9 mps 757 mmHg 69%
23:00 +21°C° 0.2 mm 8 mps 757 mmHg 73%

Day after tomorrow, 8 July, Wednesday

Time Temperature Precipitation Wind Pressure Humidity
00:00 +20°C° 0.1 mm 8 mps 758 mmHg 76%
01:00 +18°C° 0.1 mm 7 mps 758 mmHg 78%
02:00 +17°C° 0.1 mm 7 mps 759 mmHg 81%
03:00 +17°C° 0 mm 7 mps 759 mmHg 79%
04:00 +16°C° 0 mm 7 mps 760 mmHg 77%
05:00 +16°C° 0 mm 7 mps 760 mmHg 75%
06:00 +17°C° 0 mm 7 mps 760 mmHg 70%
07:00 +18°C° 0 mm 7 mps 761 mmHg 66%
08:00 +20°C° 0 mm 7 mps 761 mmHg 61%
09:00 +22°C° 0 mm 6 mps 762 mmHg 57%
10:00 +23°C° 0 mm 6 mps 762 mmHg 53%
11:00 +26°C° 0 mm 6 mps 762 mmHg 49%
12:00 +26°C° 0 mm 6 mps 762 mmHg 47%
13:00 +27°C° 0 mm 6 mps 762 mmHg 45%
14:00 +28°C° 0 mm 5 mps 762 mmHg 43%
15:00 +28°C° 0 mm 5 mps 762 mmHg 44%
16:00 +27°C° 0 mm 5 mps 762 mmHg 45%
17:00 +27°C° 0 mm 5 mps 762 mmHg 46%
18:00 +25°C° 0 mm 4 mps 762 mmHg 52%
19:00 +22°C° 0 mm 3 mps 762 mmHg 58%
20:00 +20°C° 0 mm 2 mps 762 mmHg 64%
21:00 +20°C° 0 mm 2 mps 762 mmHg 64%
22:00 +19°C° 0 mm 2 mps 763 mmHg 64%
23:00 +18°C° 0 mm 2 mps 763 mmHg 65%

9 July, Thursday

Time Temperature Precipitation Wind Pressure Humidity
00:00 +18°C° 0 mm 2 mps 763 mmHg 64%
01:00 +18°C° 0 mm 2 mps 763 mmHg 64%
02:00 +18°C° 0 mm 2 mps 763 mmHg 64%
03:00 +18°C° 0 mm 2 mps 763 mmHg 65%
04:00 +17°C° 0 mm 2 mps 763 mmHg 66%
05:00 +17°C° 0 mm 3 mps 763 mmHg 67%
06:00 +19°C° 0 mm 3 mps 763 mmHg 61%
07:00 +22°C° 0 mm 3 mps 763 mmHg 55%
08:00 +25°C° 0 mm 3 mps 763 mmHg 48%
09:00 +26°C° 0 mm 3 mps 764 mmHg 45%
10:00 +28°C° 0 mm 4 mps 764 mmHg 42%
11:00 +29°C° 0 mm 4 mps 764 mmHg 38%
12:00 +29°C° 0 mm 5 mps 764 mmHg 38%
13:00 +29°C° 0 mm 5 mps 763 mmHg 38%
14:00 +30°C° 0 mm 5 mps 763 mmHg 38%
15:00 +29°C° 0 mm 5 mps 763 mmHg 41%
16:00 +29°C° 0 mm 5 mps 763 mmHg 45%
17:00 +28°C° 0 mm 5 mps 763 mmHg 49%
18:00 +26°C° 0 mm 4 mps 763 mmHg 56%
19:00 +23°C° 0 mm 4 mps 763 mmHg 64%
20:00 +21°C° 0 mm 3 mps 763 mmHg 72%
21:00 +21°C° 0 mm 3 mps 763 mmHg 74%
22:00 +20°C° 0 mm 2 mps 763 mmHg 76%
23:00 +20°C° 0 mm 2 mps 764 mmHg 79%

10 July, Friday

Time Temperature Precipitation Wind Pressure Humidity
00:00 +20°C° 0 mm 2 mps 763 mmHg 79%
01:00 +19°C° 0 mm 2 mps 763 mmHg 79%
02:00 +19°C° 0 mm 3 mps 763 mmHg 80%
03:00 +19°C° 0 mm 3 mps 763 mmHg 81%
04:00 +19°C° 0 mm 3 mps 763 mmHg 82%
05:00 +19°C° 0 mm 4 mps 763 mmHg 83%
06:00 +21°C° 0 mm 4 mps 763 mmHg 75%
07:00 +23°C° 0 mm 5 mps 763 mmHg 68%
08:00 +26°C° 0 mm 6 mps 763 mmHg 60%
09:00 +27°C° 0 mm 6 mps 763 mmHg 57%
10:00 +28°C° 0 mm 6 mps 763 mmHg 53%
11:00 +29°C° 0 mm 7 mps 763 mmHg 50%
12:00 +29°C° 0 mm 7 mps 763 mmHg 49%
13:00 +30°C° 0 mm 7 mps 762 mmHg 49%
14:00 +30°C° 0 mm 7 mps 762 mmHg 48%
15:00 +29°C° 0 mm 7 mps 762 mmHg 50%
16:00 +29°C° 0 mm 7 mps 762 mmHg 52%
17:00 +28°C° 0 mm 7 mps 762 mmHg 54%
18:00 +27°C° 0 mm 6 mps 762 mmHg 60%
19:00 +25°C° 0 mm 5 mps 762 mmHg 66%
20:00 +23°C° 0 mm 5 mps 762 mmHg 73%
21:00 +22°C° 0 mm 5 mps 762 mmHg 76%
22:00 +22°C° 0 mm 4 mps 762 mmHg 80%
23:00 +21°C° 0 mm 4 mps 762 mmHg 83%

11 July, Saturday

Time Temperature Precipitation Wind Pressure Humidity
00:00 +21°C° 0 mm 4 mps 762 mmHg 84%
01:00 +21°C° 0 mm 4 mps 761 mmHg 85%
02:00 +21°C° 0 mm 4 mps 761 mmHg 86%
03:00 +20°C° 0 mm 4 mps 761 mmHg 87%
04:00 +20°C° 0 mm 4 mps 761 mmHg 89%
05:00 +20°C° 0 mm 4 mps 761 mmHg 90%
06:00 +22°C° 0 mm 4 mps 761 mmHg 83%
07:00 +25°C° 0 mm 5 mps 761 mmHg 75%
08:00 +26°C° 0 mm 5 mps 761 mmHg 68%
09:00 +28°C° 0.1 mm 5 mps 761 mmHg 64%
10:00 +29°C° 0.1 mm 5 mps 761 mmHg 59%
11:00 +30°C° 0.1 mm 5 mps 761 mmHg 54%
12:00 +30°C° 0 mm 5 mps 761 mmHg 52%
13:00 +30°C° 0 mm 5 mps 761 mmHg 50%
14:00 +32°C° 0 mm 5 mps 761 mmHg 48%
15:00 +30°C° 0 mm 5 mps 760 mmHg 52%
16:00 +29°C° 0 mm 5 mps 760 mmHg 56%
17:00 +29°C° 0 mm 5 mps 760 mmHg 60%
18:00 +27°C° 0 mm 5 mps 760 mmHg 67%
19:00 +26°C° 0 mm 4 mps 760 mmHg 74%
20:00 +24°C° 0 mm 3 mps 760 mmHg 81%
21:00 +22°C° 0 mm 3 mps 761 mmHg 84%
22:00 +22°C° 0 mm 3 mps 761 mmHg 86%
23:00 +21°C° 0 mm 3 mps 761 mmHg 89%
Show more